User: anonymous   Login
Location: Unspecified
(0.0000°N, 0.0000°E)
Time: 22:05:02
(UTC+02:00)
Language:

CZ-4 R/B - Orbit

View from above orbital plane
View from above orbital plane
View from above satellite
View from above satellite

Ground track
Ground track

The orbit data is extracted from the following two-line orbital elements,

1 28059U 03049C   16206.67552140  .00000007  00000-0  13668-4 0  9990
2 28059  98.6066  79.2154 0050454 164.4055 261.4170 14.52449902676136
Epoch (UTC): 24 July 2016 16:12:45
Eccentricity: 0.0050454
inclination: 98.6066°
perigee height: 682 km
apogee height: 753 km
right ascension of ascending node: 79.2154°
argument of perigee: 164.4055°
revolutions per day: 14.52449902
mean anomaly at epoch: 261.4170°
orbit number at epoch: 67613

The dashed part of the orbit path shows where the satellite is in the earth's shadow,  

DLR